Flag for Colombia Weather past 2 weeks in Bucaramanga, Colombia

Now
81 °F

Scattered clouds.


Feels Like: 82 °F
Forecast: N/A
Wind: 6 mph from Northwest

Location: Bucaramanga / Palonegro

Current Time: Sep 1, 2014 at 3:59:24 PM

Latest Report: Sep 1, 2014 at 3:00 PM


Visibility: N/A

Pressure: 29.90 "Hg

Humidity: 58%

Dew point: 64 °F

Location of BucaramangaLocation

Historic Weather in Bucaramanga — Graph

°F

Bucaramanga temperature yesterday

Maximum temperature yesterday: 81 °F (at 11:00 AM)
Minimum temperature yesterday: 68 °F (at 6:00 AM)
Average temperature yesterday: 75 °F

Past Weeks' High & Low Weather Summary

 TemperatureHumidityPressure
High82 °F (Sep 1, 12:00 PM)100% (Aug 17, 6:00 PM)30.08 "Hg (Aug 17, 6:00 PM)
Low64 °F (Aug 17, 9:00 PM)48% (Aug 30, 12:00 PM)29.87 "Hg (Aug 25, 4:00 PM)
Average72 °F81%29.99 "Hg
* Reported Aug 17 3:00 PM — Sep 1 3:00 PM, Bucaramanga, Weather by CustomWeather, © 2014

Note: Actual official high and low records may vary slightly from our data, if they occured in-between our weather recording intervals... More about our weather records

Advertising

Bucaramanga weather history for previous 24 hours

 ConditionsComfort  
Time TempWeatherWind HumidityBarometerVisibility
3:00 PM
Sep 1
81 °FScattered clouds.6 mph58%29.90 "HgN/A
1:00 PM81 °FScattered clouds.12 mph58%29.94 "HgN/A
12:00 PM82 °FScattered clouds.5 mph51%29.96 "HgN/A
11:00 AM81 °FScattered clouds.6 mph54%29.99 "HgN/A
10:00 AM79 °FScattered clouds.2 mph58%30.02 "HgN/A
9:00 AM77 °FScattered clouds.5 mph65%30.02 "HgN/A
8:00 AM73 °FScattered clouds.9 mph74%30.02 "HgN/A
7:00 AM70 °FScattered clouds.5 mph83%30.00 "HgN/A
6:00 AM68 °FScattered clouds.3 mph83%29.99 "HgN/A
12:00 AM72 °FPassing clouds.2 mph83%30.02 "HgN/A
11:00 PM
Aug 31
73 °FPassing clouds.No wind78%30.02 "HgN/A
10:00 PM73 °FPassing clouds.No wind78%30.02 "HgN/A
9:00 PM72 °FPassing clouds.No wind83%30.01 "HgN/A
8:00 PM72 °FPassing clouds.3 mph83%29.98 "HgN/A
7:00 PM75 °FPassing clouds.3 mph74%29.96 "HgN/A
6:00 PM75 °FPassing clouds.2 mph74%29.95 "HgN/A
5:00 PM77 °FScattered clouds.8 mph65%29.93 "HgN/A
4:00 PM79 °FScattered clouds.3 mph61%29.94 "HgN/A
3:00 PM79 °FScattered clouds.6 mph58%29.95 "HgN/A
Weather by CustomWeather, © 2014

See weather overviewHow to use our weather pages